ATLAS 5 CENTAUR R/B

基本信息
目录编号:
39475
目录名称:
ATLAS 5 CENTAUR R/B
国际标识:
2013-072P
轨道中心:
EARTH
物体状态:
在轨
发射日期:
2013-12-06 UTC
国别:
美国 (US)
轨道信息
数据来源: 国际轨道数据
星历时间: 2026-07-14T05:07:50+0800
半长轴: 6950.302km
偏心率: 0.017174
轨道倾角: 120.428°
近地点辐角: 296.240°
升交点赤经: 221.859°
平近点角: 62.110°
近地点: 452.8km
远地点: 691.53km
周期: 96.109分钟
每日圈数: 14.982949
详细信息
发射场:
AFWTR
轨道高度:
LEO
数据来源:
AOE Integration Group
参考系:
TEME
时间系统:
UTC
历元类型:
SGP4
2D轨道图
3D轨道图
轨道高度分析图
轨道倾角分析图
轨道综合分析图
查看轨道综合分析图